Location: Unspecified
(0.0000°N, 0.0000°E)
Time: 11:44:35
(UTC+00:00)

Hubble Space Telescope - Pass Details

Date: 12 May 2026
Orbit: 473 x 476 km, 28.5° (Epoch: 18 May)

Event Time Altitude Azimuth Distance (km) Brightness Sun altitude
Rises 18:23:52 0° 294° (WNW) 2,497 6.8 -6.5°
Reaches altitude 10° 18:26:04 10° 289° (WNW) 1,623 5.1 -7.0°
Maximum altitude 18:29:44 56° 210° (SSW) 560 0.9 -7.9°
Drops below altitude 10° 18:33:25 10° 131° (SE) 1,628 2.6 -8.8°
Enters shadow 18:33:29 10° 131° (SE) 1,650 2.7 -8.8°
